Regional Weather Roundup
Issued by NWS

Home | Current Version | Previous Version | Text Only | Print | Product List | Glossary On
Versions: 1 2 3 4 5 6 7 8 9 10 11 12 13 14 15 16 17 18 19 20 21 22 23 24 25 26 27 28 29 30 31 32 33 34 35 36 37 38 39 40 41 42 43 44 45 46 47 48 49 50
000
ASUS44 KJAN 262203
RWRMS

MISSISSIPPI HOURLY WEATHER ROUNDUP
NATIONAL WEATHER SERVICE JACKSON MS
400 PM CST MON JAN 26 2015

NOTE: "FAIR: INDICATES FEW OR NO CLOUDS BELOW 12,000 FEET WITH NO
SIGNIFICANT WEATHER AND/OR OBSTRUCTIONS TO VISIBILITY.

MSZ001>002-007>008-010>013-018>021-025>028-034>036-262300-
NORTHWEST MISSISSIPPI

CITY           SKY/WX    TMP DP  RH WIND       PRES   REMARKS
CLARKSDALE     FAIR      52  36  54 S9        30.01F
CLEVELAND      FAIR      52  39  61 SW12      30.02F
GREENWOOD      SUNNY     50  36  58 SW7       30.04F
GREENVILLE     SUNNY     53  34  48 SW10      30.02F
GRENADA        FAIR      46  32  57 W7        30.04S
OLIVE BRANCH   MOSUNNY   46  32  57 SW14      29.98F
OXFORD         FAIR      46  28  49 SW9       30.02F
TUNICA         CLEAR     50  34  53 SW14      29.99F
$$

MSZ003>006-009-014>017-022>024-029>033-037>039-262300-
NORTHEAST MISSISSIPPI

CITY           SKY/WX    TMP DP  RH WIND       PRES   REMARKS
COLUMBUS AFB   SUNNY     50  31  48 W13       30.01F
CORINTH        FAIR      46  30  53 VRB7      29.96S
GOLDN TRIANGLE SUNNY     50  32  50 W7        30.01
STARKVILLE     FAIR      50  32  50 W5        30.01F
TUPELO         SUNNY     49  30  48 W9        29.99F
$$

MSZ040-058-262300-
CENTRAL MISSISSIPPI

CITY           SKY/WX    TMP DP  RH WIND       PRES   REMARKS
JACKSON INTL   SUNNY     56  31  38 W5        30.05F
JACKSON HAWKNS SUNNY     55  31  39 NW7       30.05F
MERIDIAN KEY   SUNNY     52  31  44 NW8       30.04S
MERIDIAN NAS   SUNNY     52  29  41 W15       30.03F
RAYMOND        FAIR      55  50  82 NW12      30.06F
VICKSBURG      SUNNY     55  35  47 CALM      30.08F
$$

MSZ059>079-262300-
SOUTH MISSISSIPPI

CITY           SKY/WX    TMP DP  RH WIND       PRES   REMARKS
BROOKHAVEN     FAIR      57  34  41 W3        30.08S
HATTIESBURG    SUNNY     58  30  34 NW10      30.05S
MCCOMB         SUNNY     59  32  36 N10       30.05F
NATCHEZ        SUNNY     55  34  44 NW7       30.09S
PINE BELT      SUNNY     57  30  35 NW8       30.05F
$$

MSZ080>082-262300-
COASTAL MISSISSIPPI

CITY           SKY/WX    TMP DP  RH WIND       PRES   REMARKS
BAY ST LOUIS   SUNNY     61  25  25 N12G17    30.04R
BILOXI         SUNNY     60  32  34 N10G17    30.02R
PASCAGOULA     SUNNY     61  32  33 NW7       30.02R
GULFPORT       SUNNY     61  32  33 NW12      30.03R
$$



USA.gov is the U.S. government's official web portal to all federal, state and local government web resources and services.